CW2160 Weather Reports


time (UTC)temp
C
wind
direction
speed
KPH
gust
KPH
rain 1hr
cm
rain 24hr
cm
rain mn
cm
humidity
%
barometer
mb
20260509112527 20 0 0.0 3.2 0.00 0.03 0.00 92 1010.1
20260509112031 20 0 0.0 3.2 0.00 0.03 0.00 92 1010.0
20260509111541 20 0 0.0 0.0 0.00 0.03 0.00 92 1009.9
20260509111031 20 0 0.0 0.0 0.00 0.03 0.00 91 1009.7
20260509110534 20 0 0.0 0.0 0.00 0.03 0.00 91 1009.6
20260509110044 20 0 0.0 0.0 0.00 0.03 0.00 91 1009.6
20260509105531 20 0 0.0 0.0 0.00 0.03 0.00 91 1009.5
20260509105031 20 0 0.0 0.0 0.00 0.03 0.00 91 1009.5
20260509104539 20 0 0.0 0.0 0.00 0.03 0.00 91 1009.5
20260509104027 20 0 0.0 0.0 0.00 0.03 0.00 91 1009.6
20260509103530 20 0 0.0 0.0 0.00 0.03 0.00 90 1009.5
20260509103045 20 0 0.0 0.0 0.00 0.03 0.00 90 1009.4
20260509102528 20 0 0.0 0.0 0.00 0.03 0.00 90 1009.4
20260509102031 20 0 0.0 0.0 0.00 0.03 0.00 90 1009.3
20260509101551 20 0 0.0 0.0 0.00 0.03 0.00 89 1009.4
20260509101030 21 0 0.0 0.0 0.00 0.03 0.00 89 1009.4
20260509100527 21 0 0.0 0.0 0.00 0.03 0.00 89 1009.3
20260509100043 21 0 0.0 0.0 0.00 0.03 0.00 89 1009.4
20260509095532 21 0 0.0 0.0 0.00 0.03 0.00 88 1009.2
20260509095031 21 0 0.0 0.0 0.00 0.03 0.00 88 1009.2
20260509094544 21 0 0.0 0.0 0.00 0.03 0.00 88 1009.1
20260509094031 21 0 0.0 0.0 0.00 0.03 0.00 88 1009.0
20260509093532 21 0 0.0 0.0 0.00 0.03 0.00 88 1009.0
20260509093038 21 0 0.0 0.0 0.00 0.03 0.00 88 1009.1
20260509092530 21 0 0.0 4.8 0.00 0.03 0.00 88 1009.1
20260509092031 21 0 1.6 8.0 0.00 0.03 0.00 88 1009.1
20260509091548 21 0 1.6 8.0 0.00 0.03 0.00 88 1009.3
20260509091031 21 286 0.0 6.4 0.00 0.03 0.00 89 1009.0
20260509090528 21 0 0.0 6.4 0.00 0.03 0.00 89 1008.8
20260509090045 21 0 0.0 6.4 0.00 0.03 0.00 88 1008.0
20260509085527 21 226 1.6 6.4 0.00 0.05 0.00 88 1008.0
20260509085027 21 212 1.6 9.7 0.00 0.05 0.00 88 1007.4
20260509084544 21 281 0.0 9.7 0.00 0.05 0.00 88 1007.4
20260509084030 21 172 1.6 9.7 0.00 0.05 0.00 88 1007.1
20260509083532 21 0 0.0 0.0 0.00 0.05 0.00 88 1007.4
20260509083046 21 0 0.0 0.0 0.00 0.05 0.00 87 1007.8
20260509082534 21 0 0.0 4.8 0.00 0.05 0.00 87 1008.1
20260509082031 21 0 0.0 4.8 0.00 0.05 0.00 87 1008.2
20260509081548 21 188 0.0 4.8 0.00 0.05 0.00 87 1008.5
20260509081032 21 0 0.0 6.4 0.00 0.05 0.00 87 1008.8
20260509080531 21 0 0.0 6.4 0.00 0.05 0.00 87 1008.9
20260509080039 21 146 0.0 8.0 0.00 0.05 0.00 87 1009.3
20260509075528 21 0 0.0 8.0 0.00 0.05 0.00 86 1009.7
20260509075034 21 0 1.6 8.0 0.00 0.05 0.00 87 1009.9
20260509074554 21 0 0.0 4.8 0.00 0.05 0.00 86 1009.8
20260509074030 21 0 0.0 6.4 0.00 0.05 0.00 86 1010.1
20260509073534 21 0 1.6 6.4 0.00 0.05 0.00 86 1010.2
20260509073044 21 0 0.0 0.0 0.00 0.05 0.00 86 1010.6
20260509072532 21 0 0.0 0.0 0.00 0.05 0.00 86 1010.9
20260509072030 21 0 0.0 1.6 0.00 0.05 0.00 86 1010.9
20260509071544 21 0 0.0 9.7 0.00 0.05 0.00 85 1011.1
20260509071031 21 0 0.0 9.7 0.00 0.05 0.00 85 1011.2
20260509070531 21 249 1.6 9.7 0.00 0.05 0.00 85 1011.3
20260509070040 21 0 0.0 0.0 0.00 0.05 0.00 86 1011.5
20260509065531 21 0 0.0 0.0 0.00 0.05 0.00 86 1011.5
20260509065031 21 0 0.0 0.0 0.00 0.05 0.00 86 1011.6
20260509064557 21 0 0.0 0.0 0.00 0.05 0.00 86 1011.4
20260509064032 21 0 0.0 0.0 0.00 0.05 0.00 86 1011.4
20260509063530 21 0 0.0 0.0 0.00 0.05 0.00 86 1011.3
20260509063046 21 0 0.0 0.0 0.00 0.05 0.00 87 1011.2
20260509062534 21 0 0.0 0.0 0.00 0.05 0.00 87 1011.0
20260509062035 21 0 0.0 0.0 0.00 0.05 0.00 86 1011.1
20260509061548 21 0 0.0 0.0 0.00 0.05 0.00 86 1011.2
20260509061032 21 0 0.0 0.0 0.00 0.05 0.00 86 1011.1
20260509060527 21 0 0.0 0.0 0.00 0.05 0.00 85 1011.1
20260509060045 21 0 0.0 0.0 0.00 0.05 0.00 85 1011.1
20260509055533 21 0 0.0 0.0 0.00 0.05 0.00 84 1011.2
20260509055031 21 0 0.0 0.0 0.00 0.05 0.00 83 1011.6
20260509054542 21 0 0.0 0.0 0.00 0.05 0.00 83 1011.6
20260509054032 21 0 0.0 0.0 0.00 0.05 0.00 83 1011.8
20260509053531 22 0 0.0 0.0 0.00 0.05 0.00 82 1011.8
20260509053040 22 0 0.0 0.0 0.00 0.05 0.00 82 1011.8
20260509052530 22 0 0.0 0.0 0.00 0.05 0.00 82 1012.1
20260509052031 22 0 0.0 0.0 0.00 0.05 0.00 82 1012.2
20260509051547 21 0 0.0 0.0 0.00 0.05 0.00 83 1012.5
20260509051031 21 0 0.0 0.0 0.00 0.05 0.00 84 1012.4
20260509050534 21 0 0.0 0.0 0.00 0.05 0.00 83 1011.9
20260509050045 21 0 0.0 0.0 0.00 0.05 0.00 83 1011.2
20260509045527 21 0 0.0 0.0 0.00 0.05 0.05 82 1011.0
20260509045027 21 0 0.0 0.0 0.00 0.05 0.05 82 1010.7
20260509044543 21 0 0.0 0.0 0.00 0.05 0.05 82 1010.8
20260509044031 21 0 0.0 0.0 0.00 0.05 0.05 82 1010.8
20260509043532 22 0 0.0 0.0 0.00 0.05 0.05 81 1011.0
20260509043041 22 0 0.0 0.0 0.00 0.05 0.05 81 1011.2
20260509042529 22 0 0.0 0.0 0.00 0.05 0.05 80 1011.0
20260509042034 22 0 0.0 0.0 0.00 0.05 0.05 80 1010.8
20260509041546 22 0 0.0 0.0 0.00 0.05 0.05 80 1010.8
20260509041028 22 0 0.0 0.0 0.00 0.05 0.05 80 1010.6
20260509040533 22 0 0.0 0.0 0.00 0.05 0.05 79 1010.8
20260509040047 22 0 0.0 0.0 0.00 0.05 0.05 79 1010.7
20260509035528 22 0 0.0 0.0 0.00 0.05 0.05 79 1010.6
20260509035033 22 0 0.0 0.0 0.00 0.05 0.05 79 1010.6
20260509034550 22 0 0.0 0.0 0.00 0.05 0.05 79 1011.2
20260509034031 22 0 0.0 0.0 0.00 0.05 0.05 79 1011.5
20260509033528 22 0 0.0 0.0 0.00 0.05 0.05 79 1011.4
20260509033049 22 0 0.0 0.0 0.00 0.05 0.05 79 1011.3
20260509032532 22 0 0.0 0.0 0.00 0.05 0.05 79 1011.2
20260509032032 22 0 0.0 0.0 0.00 0.05 0.05 79 1011.1
20260509031546 22 0 0.0 0.0 0.00 0.05 0.05 79 1011.0
20260509031032 22 0 0.0 0.0 0.00 0.05 0.05 79 1010.9
20260509030530 22 0 0.0 0.0 0.00 0.05 0.05 80 1010.9
20260509030038 22 0 0.0 0.0 0.03 0.05 0.05 80 1010.9
20260509025531 22 0 0.0 0.0 0.03 0.05 0.05 80 1010.6
20260509025031 22 0 0.0 1.6 0.03 0.05 0.05 80 1010.3
20260509024545 22 0 0.0 1.6 0.03 0.05 0.05 80 1010.1
20260509024031 22 0 0.0 4.8 0.03 0.05 0.05 80 1010.0
20260509023528 22 0 0.0 4.8 0.03 0.05 0.05 80 1010.0
20260509023043 22 0 0.0 0.0 0.03 0.05 0.05 80 1009.9
20260509022531 22 0 0.0 0.0 0.03 0.05 0.05 80 1009.6
20260509022031 22 0 0.0 0.0 0.03 0.05 0.05 80 1009.7
20260509021543 22 0 0.0 0.0 0.03 0.05 0.05 80 1009.6
20260509021032 22 0 0.0 0.0 0.03 0.05 0.05 80 1009.6
20260509020527 22 0 0.0 1.6 0.03 0.05 0.05 80 1009.5
20260509020041 22 0 0.0 1.6 0.00 0.03 0.03 79 1009.5
20260509015531 22 141 0.0 0.0 0.00 0.03 0.03 79 1009.6
20260509015028 22 0 0.0 1.6 0.00 0.03 0.03 78 1009.6
20260509014540 23 0 0.0 1.6 0.00 0.03 0.03 76 1009.5
20260509014031 23 0 0.0 1.6 0.00 0.03 0.03 74 1009.6
20260509013531 23 0 0.0 1.6 0.00 0.03 0.03 73 1009.7
20260509013052 23 120 0.0 1.6 0.00 0.03 0.03 73 1009.6
20260509012528 23 0 0.0 3.2 0.00 0.03 0.03 73 1009.6
20260509012028 23 0 0.0 3.2 0.00 0.03 0.03 72 1009.7
20260509011539 23 0 0.0 1.6 0.00 0.03 0.03 72 1009.6
20260509011030 23 0 0.0 0.0 0.00 0.03 0.03 71 1009.5
20260509010532 23 0 0.0 0.0 0.00 0.03 0.03 71 1009.4
20260509010043 23 0 0.0 0.0 0.00 0.03 0.03 71 1009.2
20260509005529 23 0 0.0 1.6 0.00 0.03 0.03 70 1009.3
20260509005027 23 0 0.0 4.8 0.00 0.03 0.03 70 1009.1
20260509004552 24 0 0.0 4.8 0.00 0.03 0.03 69 1009.0
20260509004027 24 0 0.0 0.0 0.00 0.03 0.03 69 1008.9
20260509003530 24 0 0.0 0.0 0.00 0.03 0.03 69 1008.9
20260509003044 24 0 0.0 4.8 0.00 0.03 0.03 69 1008.9
20260509002531 24 0 0.0 4.8 0.00 0.03 0.03 69 1008.8
20260509002032 24 177 0.0 4.8 0.00 0.03 0.03 68 1008.7
20260509001551 24 0 0.0 4.8 0.00 0.03 0.03 67 1008.8
20260509001031 24 0 0.0 4.8 0.00 0.03 0.03 68 1008.8
20260509000531 24 0 0.0 6.4 0.00 0.03 0.03 67 1008.8
20260509000038 24 0 0.0 6.4 0.00 0.03 0.03 66 1009.0
20260508235529 25 234 0.0 3.2 0.00 0.03 0.03 66 1009.1
20260508235031 25 143 0.0 3.2 0.00 0.03 0.03 65 1009.3
20260508234544 25 0 0.0 3.2 0.00 0.03 0.03 65 1009.3
20260508234028 25 0 0.0 3.2 0.00 0.03 0.03 64 1009.3
20260508233528 25 0 0.0 3.2 0.00 0.03 0.03 63 1009.4
20260508233044 25 0 0.0 3.2 0.00 0.03 0.03 63 1009.4
20260508232527 26 140 0.0 3.2 0.00 0.03 0.03 61 1009.4
20260508232028 26 208 0.0 3.2 0.00 0.03 0.03 60 1009.3
20260508231543 26 203 0.0 4.8 0.00 0.03 0.03 61 1009.4
20260508231029 26 191 0.0 6.4 0.00 0.03 0.03 61 1009.4
20260508230531 26 161 1.6 6.4 0.00 0.03 0.03 60 1009.4
20260508230045 26 0 0.0 4.8 0.00 0.03 0.03 60 1009.5
20260508225531 26 0 1.6 4.8 0.00 0.03 0.03 60 1009.3
20260508225031 26 0 0.0 4.8 0.00 0.03 0.03 61 1009.3
20260508224550 26 0 0.0 8.0 0.00 0.03 0.03 61 1009.4
20260508224033 26 0 1.6 8.0 0.00 0.03 0.03 61 1009.4
20260508223534 26 0 0.0 12.9 0.00 0.03 0.03 61 1009.4
20260508223047 26 0 1.6 16.1 0.00 0.03 0.03 61 1009.4
20260508222531 26 172 0.0 16.1 0.00 0.03 0.03 60 1009.4
20260508222031 26 151 3.2 16.1 0.00 0.03 0.03 59 1009.4
20260508221547 26 166 3.2 9.7 0.00 0.03 0.03 58 1009.4
20260508221031 26 160 1.6 9.7 0.00 0.03 0.03 58 1009.4
20260508220530 27 148 0.0 8.0 0.00 0.03 0.03 59 1009.3
20260508220045 26 113 1.6 8.0 0.00 0.03 0.03 59 1009.2
20260508215530 26 212 0.0 8.0 0.00 0.03 0.03 60 1009.2
20260508215031 26 145 0.0 8.0 0.00 0.03 0.03 59 1009.4
20260508214558 26 120 1.6 8.0 0.00 0.03 0.03 59 1009.4
20260508214030 26 120 0.0 8.0 0.00 0.03 0.03 60 1009.5
20260508213530 26 0 1.6 8.0 0.00 0.03 0.03 59 1009.6
20260508213041 26 150 0.0 4.8 0.00 0.03 0.03 60 1009.6
20260508212531 26 186 1.6 4.8 0.00 0.03 0.03 59 1009.6
20260508212031 26 168 0.0 6.4 0.00 0.03 0.03 60 1009.7
20260508211542 25 209 0.0 6.4 0.00 0.03 0.03 62 1009.6
20260508211033 25 113 1.6 8.0 0.00 0.03 0.03 62 1009.5
20260508210530 25 0 0.0 8.0 0.00 0.03 0.03 64 1009.5
20260508210043 25 109 0.0 4.8 0.00 0.03 0.03 67 1009.6
20260508205529 24 0 0.0 4.8 0.00 0.03 0.03 68 1010.2
20260508205030 23 0 0.0 4.8 0.00 0.03 0.03 70 1010.3
20260508204545 23 0 0.0 8.0 0.00 0.03 0.03 69 1010.6
20260508204030 23 220 0.0 11.3 0.00 0.03 0.03 67 1011.0
20260508203531 23 252 1.6 11.3 0.00 0.03 0.03 64 1011.1
20260508203042 23 173 1.6 12.9 0.00 0.03 0.03 64 1011.5
20260508202530 23 229 4.8 12.9 0.00 0.03 0.03 63 1011.7
20260508202030 24 258 3.2 11.3 0.00 0.03 0.03 63 1011.8
20260508201543 24 236 3.2 11.3 0.00 0.03 0.03 62 1011.7
20260508201030 25 237 3.2 9.7 0.00 0.03 0.03 60 1011.6
20260508200530 25 262 0.0 6.4 0.00 0.03 0.03 60 1011.4
20260508200045 25 221 3.2 9.7 0.00 0.03 0.03 59 1011.7
20260508195531 25 0 0.0 9.7 0.00 0.03 0.03 59 1011.6
20260508195031 26 272 1.6 9.7 0.00 0.03 0.03 58 1011.6
20260508194540 26 166 1.6 8.0 0.00 0.03 0.03 57 1011.5
20260508194030 26 0 0.0 6.4 0.00 0.03 0.03 57 1011.5
20260508193530 26 233 0.0 6.4 0.00 0.03 0.03 58 1011.6
20260508193059 26 0 1.6 6.4 0.00 0.03 0.03 57 1011.6
20260508192531 26 0 0.0 6.4 0.00 0.03 0.03 57 1011.8
20260508192033 26 139 1.6 6.4 0.00 0.03 0.03 56 1011.8
20260508191555 26 171 0.0 8.0 0.00 0.03 0.03 56 1011.9
20260508191028 27 0 0.0 8.0 0.00 0.03 0.03 56 1011.8
20260508190529 27 264 0.0 6.4 0.00 0.03 0.03 55 1011.8
20260508185534 27 189 0.0 6.4 0.00 0.03 0.03 55 1011.8
20260508185027 27 0 0.0 8.0 0.00 0.03 0.03 55 1011.8
20260508184544 27 0 3.2 8.0 0.00 0.03 0.03 56 1012.0
20260508184031 26 0 0.0 6.4 0.00 0.03 0.03 57 1012.0
20260508183527 26 150 1.6 9.7 0.00 0.03 0.03 58 1012.0
20260508183056 26 0 3.2 11.3 0.00 0.03 0.03 56 1012.0
20260508182532 26 204 3.2 14.5 0.00 0.03 0.03 58 1012.2
20260508182028 25 250 6.4 14.5 0.00 0.03 0.03 57 1012.2
20260508181544 26 252 1.6 9.7 0.00 0.03 0.03 56 1012.3
20260508181029 26 0 3.2 11.3 0.00 0.03 0.03 56 1012.5
20260508180528 26 162 1.6 11.3 0.00 0.03 0.03 54 1012.6
20260508180058 26 209 0.0 8.0 0.00 0.03 0.03 55 1012.8
20260508175528 27 215 1.6 8.0 0.00 0.03 0.03 54 1012.9
20260508175028 27 0 1.6 8.0 0.00 0.03 0.03 54 1012.9
20260508174600 26 168 1.6 8.0 0.00 0.03 0.03 54 1012.9
20260508174027 26 153 1.6 8.0 0.00 0.03 0.03 55 1012.8
20260508173528 26 169 0.0 8.0 0.00 0.03 0.03 56 1012.9
20260508173043 26 184 0.0 9.7 0.00 0.03 0.03 57 1013.2
20260508172529 25 118 1.6 11.3 0.00 0.03 0.03 56 1013.1
20260508172028 25 130 3.2 11.3 0.00 0.03 0.03 56 1013.2
20260508171541 25 220 0.0 11.3 0.00 0.03 0.03 55 1013.2
20260508171028 25 94 1.6 4.8 0.00 0.03 0.03 56 1013.4
20260508170528 25 0 0.0 1.6 0.00 0.03 0.03 56 1013.5
20260508170044 25 0 0.0 1.6 0.00 0.03 0.03 58 1013.8
20260508165528 24 0 0.0 1.6 0.00 0.03 0.03 58 1013.9
20260508165031 24 0 0.0 0.0 0.00 0.03 0.03 57 1014.0
20260508164546 23 0 0.0 0.0 0.00 0.03 0.03 58 1014.1
20260508164031 23 0 0.0 17.7 0.00 0.03 0.03 59 1014.2
20260508163527 23 0 0.0 17.7 0.00 0.03 0.03 60 1014.3
20260508163044 23 252 4.8 17.7 0.00 0.03 0.03 59 1014.3
20260508162528 23 221 0.0 4.8 0.00 0.03 0.03 59 1014.5
20260508162027 23 0 0.0 6.4 0.00 0.03 0.03 59 1014.4
20260508161544 23 215 0.0 6.4 0.00 0.03 0.03 60 1014.6
20260508161028 22 0 0.0 6.4 0.00 0.03 0.03 60 1014.6
20260508160527 22 0 0.0 8.0 0.00 0.03 0.03 62 1014.8
20260508160043 22 0 1.6 8.0 0.00 0.03 0.03 62 1014.8
20260508155527 21 151 0.0 8.0 0.00 0.03 0.03 62 1014.9
20260508155027 21 138 0.0 8.0 0.00 0.03 0.03 62 1014.9
20260508154542 21 0 0.0 3.2 0.00 0.03 0.03 62 1015.0
20260508154031 21 0 0.0 3.2 0.00 0.03 0.03 63 1015.0
20260508153532 21 120 0.0 1.6 0.00 0.03 0.03 63 1015.1
20260508153045 21 0 0.0 1.6 0.00 0.03 0.03 62 1015.2
20260508152533 21 0 0.0 1.6 0.00 0.03 0.03 62 1015.2
20260508152028 21 0 0.0 1.6 0.00 0.03 0.03 62 1015.3
20260508151546 21 173 0.0 3.2 0.00 0.03 0.03 62 1015.3
20260508151030 21 0 0.0 3.2 0.00 0.03 0.03 63 1015.3
20260508150527 21 120 0.0 3.2 0.00 0.03 0.03 63 1015.3
20260508150044 20 186 0.0 6.4 0.00 0.03 0.03 64 1015.3
20260508145530 20 0 0.0 6.4 0.00 0.03 0.03 64 1015.3
20260508145028 20 85 0.0 6.4 0.00 0.03 0.03 64 1015.3
20260508144550 20 0 0.0 4.8 0.00 0.03 0.03 65 1015.4
20260508144027 20 131 0.0 4.8 0.00 0.03 0.03 65 1015.5
20260508143527 20 0 0.0 4.8 0.00 0.03 0.03 66 1015.5
20260508143049 20 0 0.0 4.8 0.00 0.03 0.03 66 1015.3
20260508142527 20 104 0.0 4.8 0.00 0.03 0.03 66 1015.5
20260508142027 20 0 1.6 9.7 0.00 0.03 0.03 65 1015.5
20260508141545 20 0 0.0 9.7 0.00 0.03 0.03 66 1015.5
20260508141027 20 156 0.0 6.4 0.00 0.03 0.03 63 1015.5
20260508140528 20 124 0.0 3.2 0.00 0.03 0.03 65 1015.6
20260508140038 20 0 0.0 6.4 0.00 0.03 0.03 66 1015.6
20260508135528 20 184 0.0 6.4 0.00 0.03 0.03 65 1015.6
20260508135028 20 0 0.0 3.2 0.00 0.03 0.03 65 1015.6
20260508134544 20 171 0.0 3.2 0.00 0.03 0.03 68 1015.5
20260508134027 20 0 0.0 3.2 0.00 0.03 0.03 70 1015.4
20260508133531 19 0 0.0 0.0 0.00 0.03 0.03 73 1015.4
20260508133041 18 0 0.0 0.0 0.00 0.03 0.03 74 1015.4
20260508132530 18 0 0.0 0.0 0.00 0.03 0.03 75 1015.5
20260508132031 18 0 0.0 0.0 0.00 0.03 0.03 77 1015.4
20260508131555 17 0 0.0 0.0 0.00 0.03 0.03 81 1015.5
20260508131028 17 0 0.0 0.0 0.00 0.03 0.03 80 1015.5
20260508130530 17 0 0.0 0.0 0.00 0.03 0.03 81 1015.8
20260508130043 17 0 0.0 0.0 0.00 0.03 0.03 82 1015.6
20260508125530 17 0 0.0 0.0 0.00 0.03 0.03 83 1015.4
20260508125030 17 0 0.0 0.0 0.00 0.03 0.03 83 1015.6
20260508124549 16 0 0.0 0.0 0.00 0.03 0.03 83 1015.8
20260508124030 16 0 0.0 0.0 0.00 0.03 0.03 83 1015.8
20260508123531 16 0 0.0 0.0 0.00 0.03 0.03 83 1015.8
20260508123047 16 0 0.0 0.0 0.00 0.03 0.03 82 1015.8
20260508122530 16 0 0.0 0.0 0.00 0.03 0.03 82 1015.8
20260508122030 16 0 0.0 0.0 0.00 0.03 0.03 82 1016.2
20260508121543 16 0 0.0 0.0 0.00 0.03 0.03 83 1015.9
20260508121030 16 0 0.0 0.0 0.00 0.03 0.03 83 1015.8
20260508120531 16 0 0.0 0.0 0.00 0.03 0.03 84 1015.6
20260508120105 16 0 0.0 0.0 0.00 0.03 0.03 84 1015.6
20260508115529 16 0 0.0 0.0 0.00 0.03 0.03 85 1015.9
20260508115029 16 0 0.0 0.0 0.00 0.03 0.03 85 1015.8
20260508114558 16 0 0.0 0.0 0.00 0.03 0.03 86 1015.9
20260508114030 16 0 0.0 0.0 0.00 0.03 0.03 86 1015.9
20260508113534 16 0 0.0 0.0 0.00 0.03 0.03 86 1016.0
20260508113053 16 0 0.0 0.0 0.00 0.03 0.03 86 1015.8